YO6IKB-10 Weather Reports


time (UTC)temp
C
wind
direction
speed
KPH
gust
KPH
rain 1hr
cm
rain 24hr
cm
rain mn
cm
humidity
%
barometer
mb
20260504173645 17 90 3.2 3.2 0.00 0.00 0.00 56 1011.5
20260504173145 17 90 0.0 3.2 0.00 0.00 0.00 55 1011.5
20260504172645 17 90 0.0 4.8 0.00 0.00 0.00 55 1011.4
20260504172145 18 90 0.0 1.6 0.00 0.00 0.00 55 1011.5
20260504171644 18 90 0.0 3.2 0.00 0.00 0.00 54 1011.4
20260504171144 18 90 3.2 4.8 0.00 0.00 0.00 53 1011.4
20260504170643 18 67 0.0 0.0 0.00 0.00 0.00 53 1011.3
20260504170143 18 67 0.0 1.6 0.00 0.00 0.00 52 1011.3
20260504160140 20 157 0.0 1.6 0.00 0.00 0.00 51 1010.9
20260504151137 22 0 0.0 0.0 0.00 0.00 0.00 50 1010.9
20260504150636 21 0 0.0 0.0 0.00 0.00 0.00 53 1010.9
20260504150136 20 0 0.0 0.0 0.00 0.00 0.00 56 1010.9
20260504141133 23 292 0.0 4.8 0.00 0.00 0.00 40 1011.4
20260504140633 23 292 0.0 3.2 0.00 0.00 0.00 41 1011.4
20260504140133 23 292 0.0 6.4 0.00 0.00 0.00 41 1011.4
20260504130630 24 292 3.2 9.7 0.00 0.00 0.00 40 1011.9
20260504130129 24 292 3.2 11.3 0.00 0.00 0.00 40 1012.0
20260504120126 24 292 8.0 22.5 0.00 0.00 0.00 40 1012.5
20260504110622 23 315 0.0 14.5 0.00 0.00 0.00 41 1013.2
20260504110122 22 292 4.8 17.7 0.00 0.00 0.00 42 1013.1
20260504100118 22 292 6.4 12.9 0.00 0.00 0.00 43 1013.7
20260504090115 20 292 1.6 22.5 0.00 0.00 0.00 45 1014.1
20260504081612 18 292 6.4 25.7 0.00 0.00 0.00 46 1014.3
20260504081112 18 0 0.0 22.5 0.00 0.00 0.00 46 1014.3
20260504080612 18 292 9.7 19.3 0.00 0.00 0.00 45 1014.3
20260504080111 18 292 16.1 27.4 0.00 0.00 0.00 46 1014.3
20260504070108 17 337 6.4 20.9 0.00 0.00 0.00 46 1014.3
20260504060104 17 292 0.0 8.0 0.00 0.00 0.00 49 1014.5
20260504050601 15 292 0.0 6.4 0.00 0.00 0.00 54 1014.6
20260504045601 14 292 0.0 6.4 0.00 0.00 0.00 56 1014.5
20260504045100 13 292 0.0 3.2 0.00 0.00 0.00 57 1014.6
20260504044600 12 292 0.0 3.2 0.00 0.00 0.00 58 1014.6
20260504044100 12 292 0.0 3.2 0.00 0.00 0.00 60 1014.6
20260504043559 11 292 0.0 6.4 0.00 0.00 0.00 61 1014.7
20260504043059 11 0 0.0 1.6 0.00 0.00 0.00 62 1014.6
20260504042559 10 0 0.0 3.2 0.00 0.00 0.00 64 1014.6
20260504042059 9 0 0.0 0.0 0.00 0.00 0.00 65 1014.7
20260504041558 8 0 0.0 0.0 0.00 0.00 0.00 66 1014.7
20260504041058 8 0 0.0 1.6 0.00 0.00 0.00 67 1014.7
20260504040558 8 0 0.0 0.0 0.00 0.00 0.00 67 1014.7
20260504040057 8 0 0.0 1.6 0.00 0.00 0.00 67 1014.6
20260504035557 7 292 0.0 0.0 0.00 0.00 0.00 67 1014.6
20260504035057 7 292 0.0 0.0 0.00 0.00 0.00 67 1014.6
20260504034557 7 292 0.0 0.0 0.00 0.00 0.00 67 1014.6
20260504034056 7 292 0.0 0.0 0.00 0.00 0.00 67 1014.7
20260504033556 7 292 0.0 0.0 0.00 0.00 0.00 68 1014.6
20260504033056 7 292 0.0 1.6 0.00 0.00 0.00 68 1014.7
20260504032555 7 292 0.0 1.6 0.00 0.00 0.00 68 1014.6
20260504032055 7 292 0.0 0.0 0.00 0.00 0.00 67 1014.6
20260504031555 7 292 0.0 0.0 0.00 0.00 0.00 67 1014.6
20260504031054 7 292 0.0 0.0 0.00 0.00 0.00 67 1014.5
20260504030554 7 292 0.0 0.0 0.00 0.00 0.00 68 1014.5
20260504030054 7 292 0.0 0.0 0.00 0.00 0.00 67 1014.5
20260504025554 7 292 0.0 0.0 0.00 0.00 0.00 67 1014.6
20260504025053 7 292 0.0 0.0 0.00 0.00 0.00 67 1014.7
20260504024553 7 292 0.0 0.0 0.00 0.00 0.00 66 1014.5
20260504024053 7 292 0.0 0.0 0.00 0.00 0.00 65 1014.6
20260504023552 7 292 0.0 0.0 0.00 0.00 0.00 65 1014.7
20260504023052 7 292 0.0 0.0 0.00 0.00 0.00 65 1014.7
20260504022552 7 292 0.0 0.0 0.00 0.00 0.00 65 1014.7
20260504022051 7 292 0.0 1.6 0.00 0.00 0.00 65 1014.7
20260504021551 7 315 0.0 0.0 0.00 0.00 0.00 65 1014.8
20260504021051 7 0 0.0 6.4 0.00 0.00 0.00 65 1014.8
20260504020551 7 292 0.0 8.0 0.00 0.00 0.00 64 1014.8
20260504020050 7 292 3.2 4.8 0.00 0.00 0.00 63 1014.7
20260504015550 7 292 0.0 3.2 0.00 0.00 0.00 63 1014.7
20260504015050 7 292 3.2 3.2 0.00 0.00 0.00 63 1014.7
20260504014549 7 292 1.6 4.8 0.00 0.00 0.00 63 1014.7
20260504014049 7 292 3.2 4.8 0.00 0.00 0.00 63 1014.7
20260504013549 8 292 0.0 8.0 0.00 0.00 0.00 63 1014.7
20260504013049 7 292 3.2 6.4 0.00 0.00 0.00 63 1014.6
20260504012548 7 292 3.2 8.0 0.00 0.00 0.00 62 1014.7
20260504012048 7 315 3.2 3.2 0.00 0.00 0.00 62 1014.7
20260504011548 7 315 0.0 4.8 0.00 0.00 0.00 62 1014.8
20260504011047 7 315 3.2 8.0 0.00 0.00 0.00 62 1014.5
20260504010547 8 292 1.6 6.4 0.00 0.00 0.00 62 1014.6
20260504010047 8 292 4.8 8.0 0.00 0.00 0.00 62 1014.5
20260504005547 8 292 0.0 3.2 0.00 0.00 0.00 62 1014.3
20260504005046 8 292 0.0 0.0 0.00 0.00 0.00 62 1014.3
20260504004546 8 292 0.0 0.0 0.00 0.00 0.00 62 1014.4
20260504004046 8 292 0.0 0.0 0.00 0.00 0.00 61 1014.4
20260504003545 8 292 0.0 0.0 0.00 0.00 0.00 61 1014.4
20260504003045 8 292 0.0 0.0 0.00 0.00 0.00 60 1014.3
20260504002545 8 292 0.0 0.0 0.00 0.00 0.00 59 1014.2
20260504002044 8 292 0.0 0.0 0.00 0.00 0.00 59 1014.2
20260504001544 8 292 0.0 0.0 0.00 0.00 0.00 58 1014.2
20260504001044 8 292 0.0 0.0 0.00 0.00 0.00 57 1014.3
20260504000544 9 292 0.0 1.6 0.00 0.00 0.00 56 1014.2
20260504000043 9 292 0.0 0.0 0.00 0.00 0.00 56 1014.1
20260503235543 9 292 0.0 0.0 0.00 0.00 0.00 56 1014.2
20260503235043 9 292 0.0 0.0 0.00 0.00 0.00 56 1014.1
20260503234542 9 292 0.0 0.0 0.00 0.00 0.00 56 1014.2
20260503234042 8 292 0.0 0.0 0.00 0.00 0.00 57 1014.1
20260503233542 8 292 0.0 0.0 0.00 0.00 0.00 57 1014.2
20260503233042 8 292 0.0 0.0 0.00 0.00 0.00 58 1014.2
20260503232541 9 292 0.0 0.0 0.00 0.00 0.00 58 1014.1
20260503232041 9 292 0.0 0.0 0.00 0.00 0.00 57 1014.2
20260503231541 9 292 0.0 0.0 0.00 0.00 0.00 57 1014.1
20260503231040 9 292 0.0 0.0 0.00 0.00 0.00 57 1014.2
20260503230540 9 292 0.0 0.0 0.00 0.00 0.00 57 1014.2
20260503230040 9 292 0.0 0.0 0.00 0.00 0.00 57 1014.2
20260503225540 9 292 0.0 0.0 0.00 0.00 0.00 57 1014.3
20260503225039 9 292 0.0 0.0 0.00 0.00 0.00 57 1014.3
20260503224539 9 292 0.0 0.0 0.00 0.00 0.00 57 1014.4
20260503224039 9 292 0.0 0.0 0.00 0.00 0.00 56 1014.4
20260503223538 9 292 0.0 1.6 0.00 0.00 0.00 56 1014.5
20260503223038 9 292 0.0 1.6 0.00 0.00 0.00 56 1014.5
20260503222538 9 292 0.0 0.0 0.00 0.00 0.00 55 1014.5
20260503222037 9 292 0.0 1.6 0.00 0.00 0.00 55 1014.6
20260503221537 9 292 0.0 0.0 0.00 0.00 0.00 55 1014.6
20260503221037 9 292 0.0 0.0 0.00 0.00 0.00 55 1014.6
20260503220537 9 292 0.0 0.0 0.00 0.00 0.00 54 1014.7
20260503220036 9 292 0.0 0.0 0.00 0.00 0.00 54 1014.7
20260503215536 9 292 0.0 0.0 0.00 0.00 0.00 54 1014.7
20260503215036 9 292 0.0 1.6 0.00 0.00 0.00 54 1014.8
20260503214535 9 292 0.0 1.6 0.00 0.00 0.00 53 1014.8
20260503214035 9 292 0.0 1.6 0.00 0.00 0.00 53 1015.0
20260503213535 9 292 0.0 3.2 0.00 0.00 0.00 53 1015.1
20260503213034 9 292 0.0 1.6 0.00 0.00 0.00 53 1015.0
20260503212534 9 292 0.0 6.4 0.00 0.00 0.00 52 1014.9
20260503212034 9 292 3.2 3.2 0.00 0.00 0.00 52 1014.9
20260503211534 9 292 0.0 0.0 0.00 0.00 0.00 52 1014.9
20260503211033 9 292 0.0 0.0 0.00 0.00 0.00 52 1014.9
20260503210533 10 292 0.0 3.2 0.00 0.00 0.00 52 1014.9
20260503210033 10 292 1.6 1.6 0.00 0.00 0.00 52 1014.9
20260503205533 10 292 1.6 3.2 0.00 0.00 0.00 51 1014.9
20260503205032 10 292 0.0 3.2 0.00 0.00 0.00 51 1014.9
20260503204532 10 292 1.6 3.2 0.00 0.00 0.00 51 1015.0
20260503204032 10 292 0.0 1.6 0.00 0.00 0.00 51 1015.0
20260503203531 10 292 0.0 1.6 0.00 0.00 0.00 50 1015.1
20260503203031 10 292 0.0 3.2 0.00 0.00 0.00 50 1015.1
20260503202531 10 292 0.0 4.8 0.00 0.00 0.00 50 1015.1
20260503202030 10 292 3.2 4.8 0.00 0.00 0.00 50 1015.0
20260503201530 10 292 3.2 3.2 0.00 0.00 0.00 50 1015.0
20260503201030 10 292 0.0 1.6 0.00 0.00 0.00 50 1015.1
20260503200530 10 292 0.0 0.0 0.00 0.00 0.00 49 1015.1
20260503200029 10 292 0.0 3.2 0.00 0.00 0.00 49 1015.1
20260503195529 10 292 1.6 3.2 0.00 0.00 0.00 49 1015.0
20260503195029 10 292 1.6 6.4 0.00 0.00 0.00 48 1015.1
20260503194528 10 292 3.2 6.4 0.00 0.00 0.00 48 1015.0
20260503194028 10 292 0.0 4.8 0.00 0.00 0.00 48 1015.1
20260503193528 10 292 3.2 3.2 0.00 0.00 0.00 48 1015.0
20260503193027 10 247 0.0 8.0 0.00 0.00 0.00 48 1014.9
20260503192527 10 292 0.0 3.2 0.00 0.00 0.00 48 1014.9
20260503192027 10 292 0.0 3.2 0.00 0.00 0.00 47 1014.9
20260503191527 11 225 1.6 3.2 0.00 0.00 0.00 47 1014.8
20260503191026 11 225 0.0 1.6 0.00 0.00 0.00 47 1014.8
20260503190526 11 225 0.0 1.6 0.00 0.00 0.00 47 1014.9
20260503190026 11 225 0.0 3.2 0.00 0.00 0.00 46 1014.7
20260503185525 11 225 0.0 3.2 0.00 0.00 0.00 45 1014.7
20260503185026 11 225 0.0 3.2 0.00 0.00 0.00 45 1014.7
20260503184525 11 225 0.0 6.4 0.00 0.00 0.00 45 1014.6
20260503184025 11 225 3.2 3.2 0.00 0.00 0.00 45 1014.6
20260503183524 12 202 0.0 9.7 0.00 0.00 0.00 45 1014.7
20260503183024 12 225 0.0 6.4 0.00 0.00 0.00 44 1014.7
20260503182524 12 225 4.8 11.3 0.00 0.00 0.00 44 1014.6
20260503182023 12 225 3.2 8.0 0.00 0.00 0.00 44 1014.5
20260503181523 12 247 4.8 4.8 0.00 0.00 0.00 45 1014.5
20260503181023 12 247 3.2 6.4 0.00 0.00 0.00 44 1014.5
20260503180523 12 225 3.2 4.8 0.00 0.00 0.00 44 1014.5
20260503180022 12 225 0.0 3.2 0.00 0.00 0.00 44 1014.5
20260503175522 12 225 3.2 6.4 0.00 0.00 0.00 44 1014.6
20260503175022 12 247 1.6 6.4 0.00 0.00 0.00 43 1014.5
20260503174521 13 247 1.6 8.0 0.00 0.00 0.00 43 1014.5